Vorticity
nan nan nan nan nan nan nan nan nan nan nan nan nan nan nan nan nan nan nan nan nan nan nan nan nan nan nan nan nan nan nan nan nan nan nan nan nan nan nan nan nan nan nan
nan 6 7 7 6 7 6 6 5 6 7 8 9 8 6 6 7 6 7 9 9 5 6 6 5 4 5 5 9 8 6 7 6 5 5 4 10 18 15 8 7 7 nan
nan 6 6 7 7 8 7 7 8 7 6 7 8 7 9 9 7 6 6 7 11 10 8 6 6 5 4 3 6 8 8 7 7 4 3 5 5 18 19 7 7 7 nan
nan 6 7 7 7 8 8 8 8 7 7 7 7 8 10 9 8 7 7 7 5 12 13 10 8 6 6 5 3 9 11 6 8 5 4 5 4 17 19 7 7 7 nan
nan 6 7 8 9 8 8 7 7 7 6 7 8 8 7 7 9 9 8 7 7 6 11 14 11 8 6 5 4 5 10 10 7 7 4 4 5 17 19 8 6 7 nan
nan 8 8 8 8 8 8 8 7 6 7 6 6 8 9 7 7 8 9 9 8 8 7 9 10 11 12 6 6 5 5 10 11 8 6 4 5 16 18 8 8 8 nan
nan 8 8 9 9 8 7 8 9 7 7 7 8 8 8 10 8 8 9 9 10 10 9 9 5 10 16 13 8 5 6 11 10 8 6 5 6 17 16 9 8 7 nan
nan 9 7 7 7 10 11 8 6 7 9 8 6 9 11 13 14 11 9 10 10 10 11 9 8 7 8 14 16 9 7 13 11 9 8 5 4 17 18 9 7 7 nan
nan 9 7 6 8 9 9 10 11 7 6 9 9 7 9 10 13 12 8 9 11 8 9 10 11 9 7 9 13 13 7 6 9 10 13 8 1 17 24 9 7 7 nan
nan 8 9 9 9 10 9 9 9 10 9 7 10 11 5 2 8 10 10 10 7 9 10 10 11 11 9 8 3 17 18 2 4 6 6 8 7 18 24 8 8 8 nan
nan 11 10 9 10 9 9 9 10 9 8 9 8 11 11 8 5 4 9 9 6 11 10 10 9 12 11 8 8 11 10 8 6 6 8 5 6 23 23 8 7 7 nan
nan 12 11 12 11 8 9 10 11 9 8 9 8 8 8 11 10 8 5 3 11 11 8 10 10 10 10 9 11 15 8 5 5 9 10 9 5 22 23 9 7 7 nan
nan 9 12 12 11 9 8 9 12 12 9 9 7 7 10 10 9 9 9 9 8 6 10 10 10 10 10 10 14 10 6 7 8 8 10 10 8 19 21 11 8 8 nan
nan 11 11 10 11 14 13 10 9 11 12 11 10 6 8 10 11 8 9 9 7 9 8 10 11 9 10 8 14 9 5 9 8 9 11 9 9 17 20 14 8 8 nan
nan 11 10 12 14 15 16 15 11 10 11 14 15 9 7 8 9 9 8 8 10 9 7 10 8 11 8 11 10 5 13 13 7 9 9 10 10 20 23 11 11 9 nan
nan 9 9 9 10 12 10 11 12 10 7 12 14 15 9 7 8 9 9 8 7 7 11 12 11 11 9 7 9 7 15 10 11 8 9 11 19 25 13 7 7 10 nan
nan 9 12 11 11 11 10 10 12 13 13 8 9 12 11 8 5 8 9 8 9 7 9 8 15 11 8 7 8 9 8 8 13 13 15 20 20 18 12 7 4 8 nan
nan 11 12 12 12 11 11 11 12 14 12 9 11 8 8 14 14 6 9 9 7 7 12 7 6 9 12 11 7 9 7 14 7 16 19 15 16 12 9 6 9 7 nan
nan 12 13 13 13 11 11 11 10 10 11 12 13 12 14 10 11 11 9 10 8 9 11 9 7 7 12 11 8 11 9 10 9 12 14 14 11 8 11 8 9 8 nan
nan 15 15 15 13 12 13 12 12 10 10 11 14 12 10 12 11 8 10 10 8 10 8 9 8 11 11 10 8 10 9 6 12 11 12 13 6 8 8 8 8 9 nan
nan 14 15 16 16 16 15 13 13 13 12 11 12 11 10 12 10 5 6 13 9 8 8 9 10 11 9 10 9 10 9 8 10 11 13 11 7 6 6 7 10 11 nan
nan 16 15 15 20 23 19 13 11 13 14 13 12 11 17 15 8 7 11 12 12 11 7 7 9 11 11 7 10 12 10 10 8 12 13 12 10 10 8 9 13 12 nan
nan 14 15 16 19 22 22 17 14 12 12 11 13 12 12 19 20 8 7 9 4 7 13 10 9 13 11 8 11 8 10 12 13 13 9 8 8 7 13 18 13 12 nan
nan 13 13 15 16 16 18 14 11 11 11 10 12 18 15 14 14 12 10 11 4 2 9 6 9 17 14 15 9 10 13 12 8 12 7 5 6 8 9 8 13 17 nan
nan 12 12 13 16 14 13 10 8 9 9 7 10 15 16 13 17 10 7 9 8 5 6 9 12 7 12 21 15 11 9 8 5 5 8 11 8 6 5 6 8 9 nan
nan nan nan nan nan nan nan nan nan nan nan nan nan nan nan nan nan nan nan nan nan nan nan nan nan nan nan nan nan nan nan nan nan nan nan nan nan nan nan nan nan nan nan
CAPE
0 0 0 0 0 0 0 0 0 0 0 0 0 0 0 0 0 0 0 0 0 0 0 0 3 13 5 1 0 0 0 0 0 0 0 1 19 326 297 229 162 98 50
0 0 0 0 0 0 0 0 0 0 0 0 0 0 0 0 0 0 0 0 0 0 0 0 0 5 10 13 6 0 0 0 0 0 0 0 1 203 272 182 149 104 74
1 0 0 0 0 0 0 0 0 0 0 0 0 0 0 0 0 0 0 0 0 0 0 0 0 0 0 8 3 5 0 0 0 0 0 0 0 19 240 172 148 121 111
3 3 0 0 0 2 0 2 1 0 0 0 0 0 0 0 0 0 0 0 0 0 0 0 0 0 0 0 3 11 1 0 0 0 0 0 0 1 255 167 143 141 131
2 5 2 0 1 4 5 6 5 3 2 0 0 0 0 0 0 0 0 0 0 0 0 0 0 0 0 0 0 3 12 1 0 0 0 0 0 0 253 169 142 159 92
3 6 2 2 3 3 7 11 13 9 7 3 0 0 0 0 0 0 0 0 0 0 0 0 0 0 0 0 0 0 2 19 1 0 0 0 0 1 249 175 184 152 69
12 7 0 0 4 6 12 18 24 26 16 10 7 2 0 0 0 0 0 0 0 0 0 0 0 0 0 0 0 0 0 14 6 0 0 1 0 2 240 204 186 82 57
1 3 6 4 4 2 18 26 23 16 16 15 11 9 1 0 0 0 0 0 0 0 0 0 0 0 0 0 0 0 0 11 10 8 2 7 2 4 275 227 163 62 55
1 7 8 10 8 10 7 32 29 31 28 13 19 31 19 0 0 0 0 0 0 0 0 0 0 0 0 0 0 0 0 0 0 6 5 12 6 6 321 226 155 98 58
2 6 20 24 36 24 22 24 17 36 45 23 12 12 31 3 4 0 0 0 3 1 1 0 0 0 0 0 0 0 0 0 0 0 0 0 8 5 385 244 163 110 57
29 13 51 48 60 60 60 53 50 49 29 35 17 22 27 18 5 1 2 0 1 1 1 0 0 0 0 0 0 2 0 0 0 0 0 0 0 1 389 274 169 116 79
7 19 24 75 72 68 82 71 90 62 61 54 29 40 59 79 66 33 1 0 1 3 3 1 1 0 0 0 0 4 0 0 0 0 0 0 0 0 223 210 177 157 100
0 6 15 68 66 76 83 97 113 120 107 102 81 65 68 90 44 18 16 6 0 1 4 5 2 1 1 2 1 0 0 0 0 0 0 0 0 0 98 143 135 112 87
6 21 24 9 15 48 105 106 97 67 73 142 128 108 115 73 69 35 33 16 5 0 8 8 12 11 8 6 0 0 0 0 0 0 0 0 0 0 0 31 11 2 14
0 0 1 5 18 25 64 59 90 87 78 95 148 133 111 106 77 60 23 19 13 1 10 14 6 10 13 12 2 0 0 0 0 0 0 0 0 0 0 1 0 0 0
24 18 14 13 15 16 18 16 62 53 15 9 55 113 111 109 98 80 58 14 11 4 7 19 7 10 15 8 0 2 1 0 0 0 0 1 0 1 1 1 0 0 0
15 17 20 26 16 8 6 1 0 0 4 4 3 4 48 50 109 116 73 35 14 4 2 10 23 22 25 18 0 6 9 0 0 0 1 1 1 1 1 1 0 0 0
21 18 21 32 15 20 21 4 2 0 0 1 1 1 1 15 104 96 80 28 20 8 6 15 22 34 26 39 11 3 1 0 5 1 1 1 1 1 1 1 1 0 0
28 23 20 47 35 38 36 30 2 19 25 6 1 0 0 3 28 102 78 48 31 4 17 15 29 33 45 32 22 12 2 36 1 0 1 1 1 1 1 1 1 0 0
31 34 39 23 8 5 23 30 44 34 36 15 0 4 1 2 28 84 79 75 19 5 25 18 22 26 37 21 17 9 19 24 5 5 0 0 0 1 1 1 1 0 0
21 10 4 2 1 0 1 7 35 58 55 55 12 20 20 25 21 54 84 88 28 17 39 17 19 24 17 20 12 2 29 18 5 7 1 0 0 0 0 1 0 0 0
34 56 7 22 17 1 7 17 8 10 18 20 0 81 8 7 13 0 11 17 22 24 19 21 6 21 18 9 27 42 26 10 3 1 0 2 1 2 1 0 0 0 0
44 14 36 16 6 3 12 14 18 6 1 1 1 32 57 46 23 84 2 0 0 0 0 6 11 30 21 14 35 55 0 1 1 0 0 0 0 0 0 0 0 0 0
48 29 37 19 6 1 13 18 4 28 19 26 1 0 35 20 41 44 20 22 12 0 0 0 18 41 32 28 66 4 1 1 0 0 0 0 0 0 0 0 0 0 0
41 29 35 33 22 12 15 7 23 46 37 37 47 18 42 51 0 6 52 43 20 5 0 0 0 0 0 7 6 0 1 0 0 0 0 0 0 0 0 0 0 0 0
36 27 41 44 23 35 20 16 40 56 29 33 20 20 11 20 3 0 34 46 7 12 4 5 27 7 29 1 0 0 0 0 0 0 1 0 0 0 0 0 0 0 0